Fryeburg, ME

8:59 AM EST on February 21, 2018 (GMT -0500)
Eastern Slopes Regional

Weather History for KIZG - August, 2013

Change the Weather History Date:

Saturday, August 24, 2013

  Actual Average Record
Temperature  
Mean Temperature 60 °F -  
Max Temperature 79 °F 77 °F 87 °F (2016)
Min Temperature 41 °F 49 °F 41 °F (2013)
Degree Days  
Heating Degree Days 6    
Growing Degree Days 10 (Base 50)    
Moisture  
Dew Point 45 °F    
Average Humidity 84    
Maximum Humidity 100    
Minimum Humidity 29    
Precipitation  
Precipitation 0.00 in - - ()
Sea Level Pressure  
Sea Level Pressure 30.26 in    
Wind  
Wind Speed 1 mph (NW)    
Max Wind Speed 5 mph    
Max Gust Speed -    
Visibility 4 miles    
Events Fog    
Averages and records for this station are not official NWS values.
T = Trace of Precipitation, MM = Missing Value Source: NWS Daily Summary

Daily Weather History Graph

Daily Weather History Graph

Search for Another Location

Airport or City:

Trip Planner

Search our weather history database for the weather conditions in past years. The results will help you decide how hot, cold, wet, or windy it might be!

Date:

Astronomy

Aug. 24, 2013 Rise Set
Actual Time 5:58 AM EDT 7:33 PM EDT
Civil Twilight 5:27 AM EDT 8:03 PM EDT
Nautical Twilight 4:50 AM EDT 8:40 PM EDT
Astronomical Twilight 4:11 AM EDT 9:19 PM EDT
Moon 9:14 PM EDT (8/24) 10:05 AM EDT (8/24)
Length of Visible Light 14h 35m
Length of Day
13h 34m
Waning Gibbous, 84% of the Moon is Illuminated
Aug 24
Waning Gibbous
Aug 28
Last Quarter
Sep 5
New
Sep 12
First Quarter
Sep 19
Full

Hourly Weather History & Observations

Time (EDT) Temp. Windchill Dew Point Humidity Pressure Visibility Wind Dir Wind Speed Gust Speed Precip Events Conditions
12:54 AM 48.0 °F - 46.0 °F 93% 30.20 in 9.0 mi Calm Calm - N/A   Clear
1:29 AM 46.4 °F - 44.6 °F 93% 30.20 in 1.8 mi Calm Calm - N/A   Partly Cloudy
1:35 AM 46.4 °F - 46.4 °F 100% 30.20 in 1.0 mi Calm Calm - N/A   Mist
1:42 AM 44.6 °F 43.1 °F 44.6 °F 100% 30.20 in 1.5 mi NW 3.5 mph - N/A   Partly Cloudy
1:46 AM 46.4 °F 45.2 °F 44.6 °F 93% 30.20 in 3.0 mi NW 3.5 mph - N/A   Partly Cloudy
1:54 AM 46.0 °F - 44.1 °F 93% 30.21 in 10.0 mi Calm Calm - N/A   Partly Cloudy
2:30 AM 46.4 °F - 44.6 °F 93% 30.21 in 1.0 mi Calm Calm - N/A   Mist
2:34 AM 44.6 °F - 42.8 °F 93% 30.21 in 0.2 mi Calm Calm - N/A Fog Fog
2:43 AM 44.6 °F 43.1 °F 42.8 °F 93% 30.21 in 1.2 mi West 3.5 mph - N/A   Partly Cloudy
2:45 AM 44.6 °F 43.1 °F 42.8 °F 93% 30.21 in 4.0 mi West 3.5 mph - N/A   Partly Cloudy
2:51 AM 44.6 °F - 42.8 °F 93% 30.21 in 1.2 mi Calm Calm - N/A   Scattered Clouds
2:54 AM 44.1 °F - 43.0 °F 96% 30.22 in 0.5 mi Calm Calm - N/A Fog Fog
3:03 AM 44.6 °F - 44.6 °F 100% 30.22 in 2.0 mi Calm Calm - N/A   Partly Cloudy
3:10 AM 44.6 °F - 44.6 °F 100% 30.22 in 8.0 mi Calm Calm - N/A   Clear
3:18 AM 44.6 °F - 44.6 °F 100% 30.22 in 1.5 mi Calm Calm - N/A   Clear
3:23 AM 44.6 °F - 42.8 °F 93% 30.22 in 0.8 mi Calm Calm - N/A   Clear
3:27 AM 44.6 °F - 42.8 °F 93% 30.22 in 0.2 mi Calm Calm - N/A Fog Fog
3:54 AM 43.0 °F - 42.1 °F 97% 30.23 in 1.2 mi Calm Calm - N/A   Partly Cloudy
3:58 AM 44.6 °F - 42.8 °F 93% 30.23 in 2.0 mi Calm Calm - N/A   Clear
4:05 AM 42.8 °F - 42.8 °F 100% 30.23 in 1.0 mi Calm Calm - N/A   Mist
4:09 AM 42.8 °F - 42.8 °F 100% 30.23 in 0.2 mi Calm Calm - N/A Fog Fog
4:49 AM 42.8 °F - 41.0 °F 93% 30.25 in 0.8 mi Calm Calm - N/A   Mist
4:54 AM 42.1 °F - 41.0 °F 96% 30.25 in 1.2 mi Calm Calm - N/A   Partly Cloudy
5:07 AM 41.0 °F - 39.2 °F 93% 30.25 in 0.5 mi Calm Calm - N/A Fog Fog
5:15 AM 42.8 °F - 41.0 °F 93% 30.26 in 1.5 mi Calm Calm - N/A   Clear
5:25 AM 42.8 °F - 41.0 °F 93% 30.26 in 0.8 mi Calm Calm - N/A   Clear
5:39 AM 41.0 °F - 39.2 °F 93% 30.27 in 0.2 mi Calm Calm - N/A Fog Fog
5:46 AM 41.0 °F - 39.2 °F 93% 30.27 in 1.0 mi Calm Calm - N/A   Clear
5:48 AM 41.0 °F - 39.2 °F 93% 30.27 in 2.0 mi Calm Calm - N/A   Clear
5:54 AM 41.0 °F - 39.9 °F 96% 30.28 in 4.0 mi Calm Calm - N/A   Clear
6:14 AM 41.0 °F - 39.2 °F 93% 30.28 in 0.5 mi Calm Calm - N/A Fog Fog
6:21 AM 41.0 °F - 39.2 °F 93% 30.29 in 0.2 mi Calm Calm - N/A Fog Fog
6:54 AM 44.1 °F - 43.0 °F 96% 30.30 in 0.2 mi Calm Calm - N/A Fog Fog
7:02 AM 44.6 °F - 44.6 °F 100% 30.30 in 1.0 mi Calm Calm - N/A   Mist
7:04 AM 46.4 °F - 44.6 °F 93% 30.30 in 1.5 mi Calm Calm - N/A   Partly Cloudy
7:08 AM 46.4 °F - 46.4 °F 100% 30.30 in 3.0 mi Calm Calm - N/A   Partly Cloudy
7:54 AM 53.1 °F - 50.0 °F 89% 30.32 in 10.0 mi Calm Calm - N/A   Clear
8:54 AM 62.1 °F - 48.9 °F 62% 30.33 in 10.0 mi Calm Calm - N/A   Clear
9:54 AM 66.9 °F - 48.0 °F 51% 30.33 in 10.0 mi Calm Calm - N/A   Clear
10:54 AM 72.0 °F - 46.9 °F 41% 30.32 in 10.0 mi Calm Calm - N/A   Clear
11:54 AM 73.9 °F - 46.0 °F 37% 30.32 in 10.0 mi Variable 4.6 mph - N/A   Clear
12:54 PM 75.0 °F - 45.0 °F 34% 30.30 in 10.0 mi Calm Calm - N/A   Clear
1:54 PM 77.0 °F - 44.1 °F 31% 30.30 in 10.0 mi NNE 3.5 mph - N/A   Clear
2:54 PM 78.1 °F - 44.1 °F 30% 30.29 in 10.0 mi Calm Calm - N/A   Clear
3:54 PM 78.1 °F - 43.0 °F 29% 30.28 in 10.0 mi Calm Calm - N/A   Clear
4:54 PM 77.0 °F - 43.0 °F 30% 30.28 in 10.0 mi Calm Calm - N/A   Clear
5:54 PM 75.9 °F - 44.1 °F 32% 30.27 in 10.0 mi Calm Calm - N/A   Clear
6:54 PM 69.1 °F - 60.1 °F 73% 30.28 in 10.0 mi Calm Calm - N/A   Clear
7:54 PM 61.0 °F - 55.0 °F 81% 30.29 in 10.0 mi Calm Calm - N/A   Clear
8:54 PM 57.0 °F - 53.1 °F 87% 30.31 in 10.0 mi Calm Calm - N/A   Clear
9:54 PM 55.9 °F - 54.0 °F 93% 30.33 in 10.0 mi Calm Calm - N/A   Clear
10:54 PM 53.1 °F - 51.1 °F 93% 30.33 in 10.0 mi Calm Calm - N/A   Clear
11:11 PM 51.8 °F - 50.0 °F 94% 30.33 in 2.0 mi WNW 3.5 mph - N/A   Clear
11:20 PM 51.8 °F - 48.2 °F 88% 30.33 in 7.0 mi Calm Calm - N/A   Clear
11:54 PM 51.1 °F - 50.0 °F 96% 30.34 in 10.0 mi Calm Calm - N/A   Clear